This is the latest recevied weather packets stored in our database for station/object 4S6DRJ-13. If no packets are shown the sender has not sent any weather packets the latest 10 day(s).
| Time | Temp. | Humidity | Pressure | Rain* | Wind** | Luminosity | Snow |
|---|---|---|---|---|---|---|---|
| 1788429248 | 31.11° C | 70% | 1007 hPa | 0 mm | 1.79 m/s, 239° | 433 W/m² | - |
| 1788429187 | 31.11° C | 70% | 1007.1 hPa | 0 mm | 1.34 m/s, 240° | 413 W/m² | - |
| 1788429126 | 31.11° C | 70% | 1007.1 hPa | 0 mm | 1.34 m/s, 261° | 548 W/m² | - |
| 1788429065 | 31.11° C | 71% | 1007.2 hPa | 0 mm | 0.45 m/s, 114° | 501 W/m² | - |
| 1788429004 | 31.11° C | 71% | 1007.2 hPa | 0 mm | 1.34 m/s, 154° | 356 W/m² | - |
| 1788428943 | 30.56° C | 72% | 1007.2 hPa | 0 mm | 0.89 m/s, 237° | 477 W/m² | - |
| 1788428882 | 30.56° C | 73% | 1007.2 hPa | 0 mm | 0.89 m/s, 314° | 468 W/m² | - |
| 1788428821 | 30.56° C | 73% | 1007.3 hPa | 0 mm | 0.45 m/s, 293° | 381 W/m² | - |
| 1788428760 | 30.56° C | 74% | 1007.2 hPa | 0 mm | 0.89 m/s, 49° | 430 W/m² | - |
| 1788428700 | 30.56° C | 74% | 1007.3 hPa | 0 mm | 0 m/s | 409 W/m² | - |
| 1788428649 | 30.56° C | 73% | 1007.1 hPa | 0 mm | 1.79 m/s, 259° | 403 W/m² | - |
| 1788428577 | 30.56° C | 73% | 1007.3 hPa | 0 mm | 1.79 m/s, 201° | 390 W/m² | - |
| 1788428516 | 30.56° C | 73% | 1007.4 hPa | 0 mm | 1.34 m/s, 171° | 367 W/m² | - |
| 1788428455 | 30° C | 73% | 1007.3 hPa | 0 mm | 1.79 m/s, 219° | 333 W/m² | - |
| 1788428394 | 30° C | 73% | 1007.2 hPa | 0 mm | 1.34 m/s, 272° | 375 W/m² | - |
| 1788428333 | 30.56° C | 72% | 1007.3 hPa | 0 mm | 2.68 m/s, 203° | 364 W/m² | - |
| 1788428272 | 30.56° C | 73% | 1007.3 hPa | 0 mm | 2.24 m/s, 273° | 346 W/m² | - |
| 1788428211 | 30.56° C | 72% | 1007.2 hPa | 0 mm | 2.24 m/s, 250° | 307 W/m² | - |
| 1788428150 | 30.56° C | 73% | 1007 hPa | 0 mm | 1.79 m/s, 220° | 322 W/m² | - |
| 1788428089 | 30.56° C | 72% | 1007.4 hPa | 0 mm | 2.24 m/s, 244° | 350 W/m² | - |
| 1788428028 | 30.56° C | 72% | 1007.3 hPa | 0 mm | 1.79 m/s, 207° | 380 W/m² | - |
| 1788427967 | 30.56° C | 73% | 1007.2 hPa | 0 mm | 1.34 m/s, 288° | 359 W/m² | - |
| 1788427906 | 30.56° C | 72% | 1007.3 hPa | 0 mm | 0.45 m/s, 222° | 348 W/m² | - |
| 1788427845 | 30.56° C | 72% | 1007.2 hPa | 0 mm | 1.79 m/s, 211° | 394 W/m² | - |
| 1788427784 | 30.56° C | 72% | 1007.3 hPa | 0 mm | 1.34 m/s, 292° | 399 W/m² | - |
* Rain latest hour (hover to see other rain measurements)
** Current wind speed in m/s (hover to see current wind gust speed)